Regional Weather Roundup
Issued by NWS Wakefield, VA

Home | Current Version | Previous Version | Graphics & Text | Print | Product List | Glossary On
Versions: 1 2 3 4 5 6 7 8 9 10 11 12 13 14 15 16 17 18 19 20 21 22 23 24 25 26 27 28 29 30 31 32 33 34 35 36 37 38 39 40 41 42 43 44 45 46 47 48 49 50
000
ASUS41 KAKQ 220110
RWRAKQ

REGIONAL WEATHER ROUNDUP
NATIONAL WEATHER SERVICE WAKEFIELD VA
900 PM EDT THU AUG 21 2014

Note: "fair" indicates few or no clouds below 12,000 feet with no
significant weather and/or obstructions to visibility. * = Denotes
station may not report precipitation (e.g., rain,snow,etc.),
thunder or fog.

VAZ042-051-052>054-056-220200-
NORTHERN VIRGINIA

CITY           SKY/WX    TMP DP  RH WIND       PRES   REMARKS
WASH NATIONAL  LGT RAIN  79  70  74 W6        29.99S
DULLES         CLOUDY    72  70  94 SW3       30.00R
FORT BELVOIR   LGT RAIN  75  72  88 NW8       30.00R FOG
QUANTICO       CLOUDY    79  75  87 NW5       29.99S
FREDERICKSBRG* CLOUDY    80  75  84 CALM      29.98S
STAFFORD*      DRIZZLE   76  76 100 CALM      30.03S
WARRENTON      CLOUDY    76  76 100 CALM      29.99S
CULPEPER*      CLOUDY   N/A N/A N/A CALM      30.00S HAZE
MANASSAS*      CLOUDY    75  75 100 CALM      29.99F
LEESBURG*      CLOUDY    72  72 100 CALM      30.00F
WINCHESTER     CLOUDY    77  64  65 W5        30.02R
$$

VAZ048-049-060>072-079>083-220200-
CENTRAL AND SOUTH CENTRAL VIRGINIA...AND NORTH CENTRAL NORTH CAROLINA

CITY           SKY/WX    TMP DP  RH WIND       PRES   REMARKS
RICHMOND       CLOUDY    81  72  74 S3        29.99F
CHESTERFIELD*  CLOUDY   N/A N/A N/A CALM      30.01S
HANOVER        CLOUDY    77  74  90 CALM      30.01S
TAPPAHANNOCK*  CLOUDY    77  73  88 CALM      30.00S
CHARLOTTSVILLE CLOUDY    77  70  79 VRB3      30.02R
ORANGE*        CLOUDY    77  72  83 CALM      30.02S
LOUISA*        CLOUDY    79  73  83 SW5       30.00S
FARMVILLE*     CLOUDY    73  73 100 SW3       30.02R
SOUTH HILL*    CLOUDY    81  73  78 CALM      30.09S
ROANOKE RAPIDS CLOUDY    77  73  88 CALM      30.02S
RALEIGH        MOCLDY    78  70  76 CALM      30.06R
$$

VAZ088>098-220200-
SOUTHEAST VIRGINIA

CITY           SKY/WX    TMP DP  RH WIND       PRES   REMARKS
NORFOLK        MOCLDY    79  71  76 S5        29.99F
VIRGINIA BEACH CLOUDY    78  72  81 S3        29.99S
NORFOLK NAVAL  MOCLDY    82  72  71 SE5       30.01S
WEST POINT*    CLOUDY    80  74  84 CALM      30.01R
NEWPORT NEWS   MOCLDY    81  73  76 E3        30.00R
LANGLEY AFB    MOCLDY    80  73  80 CALM      29.99S
FORT EUSTIS    MOCLDY    80  78  93 SE5       29.98S
WILLIAMSBURG*  MOCLDY    82  77  83 CALM      30.00S
FRANKLIN*      MOCLDY    79  75  89 CALM      30.00S
WAKEFIELD      CLOUDY    79  76  90 CALM      30.00S FOG
$$

VAZ020-022-025-037-045-220200-
WESTERN AND SOUTHWEST VIRGINIA

CITY           SKY/WX    TMP DP  RH WIND       PRES   REMARKS
STAUNTON*      CLOUDY    75  67  76 SE5       30.08R
HOT SPRINGS VA CLOUDY    63  63 100 W12       30.21F
LYNCHBURG        N/A    N/A N/A N/A SW5       30.08F
DANVILLE       LGT RAIN  75  71  87 NE7       30.08R
MARTINSVILLE   CLOUDY    77  76  98 CALM      30.10S
ROANOKE        MOCLDY    72  67  84 CALM      30.10F
BLACKSBURG     CLOUDY    70  70 100 CALM      30.16S
DUBLIN*        CLOUDY    71  71  99 SW5       30.16S
MARION*        CLOUDY    67  65  94 W5        30.20F
HILLSVILLE*    LGT RAIN  67  64  93 W6        30.19F
RICHLANDS*     CLOUDY    68  67  94 SE3       30.19F FOG
WISE*          CLOUDY    68  68 100 S5        30.19F
ABINGDON*      CLOUDY    72  69  90 CALM      30.16F
$$

MDZ021>025-VAZ099-100-220200-
SOUTHERN MARYLAND AND THE DELMARVA PENINSULA

CITY           SKY/WX    TMP DP  RH WIND       PRES   REMARKS
PATUXENT RIVER CLOUDY    78  72  81 S6        29.99R
BAY BRIDGE APT   N/A     79  73  83 SE3       29.98S
LEONARDTOWN    CLOUDY    77  70  78 CALM      30.01S
DOVER          CLOUDY    74  72  92 SE7       29.98F
GEORGETOWN     CLOUDY    74  71  91 SE7       30.01S
EASTON         CLOUDY    79  77  94 CALM      30.02S
CAMBRIDGE      CLOUDY    79  73  83 SE6       29.99S
SALISBURY      CLOUDY    77  73  87 SE5       30.00S
OCEAN CITY     CLOUDY    76  73  91 S3        30.01S
WALLOPS ISLAND CLOUDY    77  74  90 SE7       30.01S
ACCOMACK*      CLOUDY    77  73  88 SE3       30.00S
$$

NCZ012>017-030>032-220200-
EASTERN NORTH CAROLINA

CITY           SKY/WX    TMP DP  RH WIND       PRES   REMARKS
ELIZABETH CITY MOCLDY    79  74  84 CALM      30.01S HAZE
AHOSKIE*       CLOUDY    77  75  92 CALM      30.02S
EDENTON*       MOCLDY    80  77  92 CALM      30.01S
CURRITUCK*     MOCLDY    78  69  72 CALM      30.02S
KILL DEVIL HLS MOCLDY    80  72  75 CALM      30.00S
MANTEO         MOCLDY    81  73  78 S5        30.01S
CAPE HATTERAS  MOCLDY    80  78  94 W3        30.02R
GOLDSBORO      MOCLDY    82  78  89 CALM      30.02R
WASHINGTON     PTCLDY    80  76  87 CALM      30.03R
GREENVILLE     MOCLDY    79  77  94 CALM      30.04S
NEW BERN       PTCLDY    81  74  79 CALM      30.03R
WILMINGTON     CLEAR     80  75  84 SW3       30.03R
$$

VAZ048-220200-
ELSEWHERE

CITY           SKY/WX    TMP DP  RH WIND       PRES   REMARKS
HARRISBURG PA  MOCLDY    71  68  90 CALM      29.98S
BALTIMORE      CLOUDY    77  69  76 CALM      29.97F
ANNAPOLIS      CLOUDY    80  71  74 CALM      29.97F
ANDREWS AFB    CLOUDY    76  73  90 NW3       29.99S
WILMINGTON DE  CLOUDY    75  70  84 SE9       30.01R
PHILADELPHIA   CLOUDY    76  67  73 SE12      30.01R
WILDWOOD NJ*   CLOUDY    75  66  73 SE9       30.02S
ATLANTIC CITY  CLOUDY    73  67  81 S7        30.02R
HENDERSON NC   MOCLDY    78  71  79 CALM      30.06R
GREENSBORO     MOCLDY    81  69  67 SW6       30.08S
ROCKY MOUNT    MOCLDY    77  75  93 CALM      30.03R
FAYETTEVILLE   PTCLDY    84  70  62 CALM      30.04R
CHARLOTTE      PTCLDY    83  65  54 W3        30.09R
$$

VAZ100-220200-
MARINE

STATION/POSITION TIME  TEMP    WIND        PRES    WAVE   SWELL
                       AIR SEA DIR/SP/G            HT/PER HT/PER
                 (UTC) (F)     (DEG/KT/KT) (MB)    (FT/S) (FT/S)
44066 TX TWR #4  0100   72 74  100/ 10/ 12 1017.0F   4/ 8   3/ 8
CAPE MAY NJ      0100   74 81  130/  7/ 11 1015.7R
LEWES DE         0100   75 76  160/  8/ 11 1015.5S
15NM E FENWICK I 0100   76 75              1016.1F   2/ 6
OCEAN-CITY-INLET 0100   76 77  160/  8/ 10 1015.8F
WACHAPREAGUE VA  0100   78 83  160/  5/  7 1016.0R
THOMAS POINT MD  0100   79 79  210/  2/  3 1015.6F
GOOSES REEF MD   0100   81     230/  4/  4 1015.8S
COVE POINT MD    0100   79     200/  7/  8 1015.3S
SOLOMONS ISLAND  0100      82                N/A
BISHOPS HEAD MD  0100   79 83  200/ 11/ 17 1015.4R
PINEY POINT MD   0100          190/ 11/ 12   N/A
POTOMAC MD       0100   78     170/ 12/ 12 1014.8F
CAMBRIDGE MD     0100   80 78  150/  3/  5 1015.2S
LEWISETTA VA     0100   75 81  180/  5/  6 1015.4R
RAPPAHANNOCK LGT 0100          130/  8/  9 1016.1F
STINGRAY PT      0100   81     160/  6/  8 1016.2S
YORK RVR RNG VA  0100   81     170/  8/  9 1015.3R
YORKTOWN VA      0100   81 80  170/  4/  5 1015.4R
JAMESTOWN VA     0100   80     220/  4/  6   N/A
DOMINION TERM VA 0100   82     150/  5/  6 1015.6S
KIPTOPEKE VA     0100      83  130/  6/  6   N/A
CHES BAY BRIDGE  0100   80 78  160/  6/  7 1015.2F
CAPE HENRY VA    0100   78     170/  5/  6 1014.6R
CHESAPEAKE LGHT  0000   79     140/  3/  3 1016.6S
WILLOUBY STN VA  0100   83     130/  3/  4 1014.4S
S CRANEY ISL VA  0100          150/  6/  7 1015.3S
CAPE HENRY BUOY  0100      80                N/A     2/ 6
1ST LANDING BUOY 0100   80     160/  6/  8 1015.4S
CAPE CHARLES BUO 0100      79                N/A     2/ 7   2/ 7
OFFSHORE WE BUOY 0100      79                N/A     2/ 7   2/ 7
64NM E OF VA BCH 0100   79 78  130/  2/  4 1016.0R   2/ 7   2/ 7
DUCK PIER NC     0100   83 79  190/  4/  5 1015.4S
44056 DUCK FRF   0100                        N/A     2/ 7
OREGON INLET NC  0100   82 85  220/  6/  8 1016.3R
HATTERAS NC      0100   81 83  240/  4/  6 1017.0R
DIAMOND SHLS NC  0100   81     200/  8/ 10 1016.2F   2/ 9   2/ 9
CAPE LOOKOUT NC  0000   81     200/  5/  6 1016.2S
$$


USA.gov is the U.S. government's official web portal to all federal, state and local government web resources and services.